Время (UTC), дата Ветер
(°,м/с) 
Видим.   Явления Облачность Т
(°С)
Тd
(°С)
f(%) Тe
(°С)
Pmin
(гПа)
dP
(гПа)
Po
(мм)
O2
(г/м3)
Тmin Tmax R s Состояние
почвы
00 16.07.14 100 (В) 20000 м    5/0 средняя 
[Ac trans]
+18.2 +6.1 45 +18  1012.1  720  271          полностью
покрыта
пылью 
03 16.07.14 100 (В) 20000 м    1/1 1000 м 
[Sc]
+18.1 +9.5 57 +19  1012.5  0.4  721  271  +16.9        сухая 
06 16.07.14 110 (В) 9-12{14}  20000 м    ясно 
+24.4 +7.5 34 +24  1011.6  0.2  721  265           
09 16.07.14 110 (В) 9-13  20000 м    ясно 
+29.1 +7.9 26 +29  1010  -0.7  720  261          полностью
покрыта
пылью 
12 16.07.14 100 (В) 7-11{15}  20000 м    ясно 
+31.2 +11 29 +35  1008.2  -1.4  719  258           
15 16.07.14 110 (В) 7-12{13}  20000 м    ясно 
+30.8 +6.3 21 +31  1007.8  -0.5  719  259    +31.7       
18 16.07.14 090 (В) 5{12}  20000 м    3/0 средняя 
[Ac trans]
+25.5 +6.7 30 +26  1008.7  719  264           
21 16.07.14 090 (В) 20000 м    ясно 
+22.2 +9.6 45 +24  1008.7  -0.5  718  266           
00 17.07.14 100 (В) 20000 м    ясно 
+19.2 +11.2 60 +23  1008.6  -0.6  718  268           
03 17.07.14 100 (В) 4{10}  20000 м    ясно 
+18.7 +15 79 +29  1009  0.4  718  268  +17.6        сухая 
06 17.07.14 120 (ЮВ) 8-11  20000 м    ясно 
+26.2 +14.3 48 +35  1007.8  0.1  718  261          полностью
покрыта
пылью 
09 17.07.14 100 (В) 9-13{16}  20000 м    ясно 
+31.4 +10.2 27 +34  1006  -0.9  718  257           
12 17.07.14 110 (В) 8-12{15}  20000 м    1/0 верхняя 
[Ci fib]
+34 +7.2 19 +34  1004.9  -0.7  717  256           
15 17.07.14 100 (В) 5{12}  20000 м    8/0 средняя, верхняя 
[Ac As|Ci]
+33.8 +7.8 20 +34  1004.5  -0.4  717  256    +34.8       
18 17.07.14 080 (В) 20000 м    4/3 1000 м кучево-дожд., средняя 
[Cb cap|Ac trans]
+27.3 +11 36 +31  1005.5  -0.4  717  260           
21 17.07.14 120 (ЮВ) 20000 м    ясно 
+23.7 +14.1 55 +32  1005.9  0.1  717  263           
00 18.07.14 290 (З) 20000 м    3/0 средняя 
[Ac trans]
+21.9 +18.3 80 +38  1006.1  0.1  717  263           
03 18.07.14 270 (З) 20000 м    10/3 1000 м кучево-дожд., средняя, верхняя 
[Cb cap|Ac As|Ci]
+21 +17.6 81 +36  1006.5  0.2  717  264  +20.8        сухая 
06 18.07.14 300 (СЗ) 4000 м  гроза, ливневой дождь  10/8 210 м кучево-дожд., средняя 
[Cb cap|Ac und]
+17.5 +16.6 94 +31  1008.7  1.4  718  268  +17.5         
09 18.07.14 030 (СВ) 20000 м  в посл. час ливневой дождь{гроза}  8/4 600 м кучево-дожд., средняя 
[Cb calv|Ac trans]
+22 +17.3 75 +36  1007.6  -0.3  718  264        595  мокрый или
старый снег
10-40% 
12 18.07.14 020 (С) 20000 м  {гроза, ливн. осадки}  8/4 600 м кучево-дожд., средняя 
[Cb calv|Ac trans]
+24.9 +18.6 68 +42  1005.9  -1  717  260           
15 18.07.14 060 (СВ) 20000 м    8/4 1000 м кучево-дожд., средняя 
[Cb calv|Ac trans]
+25.1 +17.8 64 +40  1006.3  0.3  717  261    +25.8  14     
18 18.07.14 тихо ()   20000 м    3/0 средняя 
[Ac trans]
+21.7 +17.7 78 +37  1007.2  0.3  717  264           
21 18.07.14 240 (ЮЗ) 20000 м    3/0 средняя 
[Ac trans]
+19 +16.9 88 +34  1007.1  -0.5  717  266           
00 19.07.14 290 (З) 20000 м    3/0 
+20.6 +17.2 81 +21    0.2             
03 19.07.14 310 (СЗ) 20000 м    4/1 1000 м кучево-дожд., средняя 
[Cb calv|Ac trans]
+20 +18.4 90 +37  1007.9  0.8  718  265  +18.5        влажная 
06 19.07.14 200 (Ю) 20000 м  гроза, ливневой дождь  10/5 1000 м кучево-дожд., средняя 
[Cb cap|Ac und]
+21.6 +19.1 86 +40  1008  0.4  718  263           
09 19.07.14 160 (Ю) 2{19}  20000 м  в посл. час гроза{ливн. осадки}  6/3 600 м кучево-дожд., средняя 
[Cb calv|Ac trans]
+24.4 +18.5 70 +41  1006.4  -1.1  717  261           
12 19.07.14 330 (СЗ) 6{11}  20000 м  слаб. ливневой дождь{гроза}  9/3 600 м кучево-дожд., средняя 
[Cb calv|Ac trans]
+21.5 +15.1 67 +32  1007.4  0.4  717  265           
15 19.07.14 240 (ЮЗ) 20000 м  в посл. час гроза{ливн. осадки}  9/4 1000 м кучево-дожд., средняя 
[Cb calv|Ac trans]
+22.3 +16.4 69 +35  1007.3  -0.1  717  264    +27.4  35     
18 19.07.14 220 (ЮЗ) 20000 м  {гроза, ливн. осадки}  9/3 1000 м кучево-дожд., средняя, верхняя 
[Cb cap|Ac inh|Cs]
+20.3 +13.4 65 +20  1008.7  0.9             
21 19.07.14 320 (СЗ) 20000 м    3/0 средняя 
[Ac trans]
+17.7 +14.2 80 +27  1008.1  -0.9  717  269           
00 20.07.14 340 (С) 20000 м    ясно 
+19.5 +12.6 64 +26  1007.5  -0.3  717  267           
03 20.07.14 060 (СВ) 20000 м    1/0 средняя 
[Ac trans]
+18.2 +12.3 68 +24  1008.9  1.1  718  269  +16.6        влажная 
06 20.07.14 100 (В) 8-11{11}  20000 м    1/0 средняя 
[Ac trans]
+23.8 +7.2 34 +24  1008.4  0.4  718  265           
09 20.07.14 100 (В) 8-12  20000 м    4/3 600 м средняя 
[Cu hum|Ac trans]
+27.1 +7.1 28 +27  1007.5  -0.3  718  262        698  мокрый или
старый снег
50-90% 
12 20.07.14 070 (В) 7-11{13}  20000 м    5/3 600 м средняя 
[Cu hum|Ac trans]
+28 +8.7 30 +28  1006.6  -0.7  718  261           
15 20.07.14 080 (В) 8-11  20000 м    10/4 1000 м кучево-дожд., средняя 
[Cb calv|Ac und]
+25.5 +9.1 35 +26  1007.5  0.4  718  263    +28.5       
18 20.07.14 080 (В) 20000 м    10/3 1000 м кучево-дожд., средняя 
[Cb calv|Ac und]
+22.3 +8.6 41 +22  1008.6  0.5  718  266      50    полностью
покрыта
пылью 
21 20.07.14 100 (В) 20000 м    9/3 1000 м кучево-дожд., средняя 
[Cb calv|Ac trans]
+18.7 +12 65 +24  1009.3  -0.1  718  269           
00 21.07.14 090 (В) 20000 м    5/0 верхняя 
[Sc diur, vesp|Ci ing]
+16.9 +13.1 78 +17  1008.8  -0.8             
03 21.07.14 070 (В) 20000 м    6/3 1000 м средняя 
[Sc|Ac trans]
+16.5 +11.8 74 +22  1009  0.1  718  270  +16.2        сухая 
06 21.07.14 100 (В) 8-10  20000 м    3/1 1000 м средняя, верхняя 
[Sc|Ac trans|Ci fib]
+23.2 +7.5 36 +23  1007.9  718  265          полностью
покрыта
пылью 
09 21.07.14 100 (В) 8-11{12}  20000 м    3/3 600 м 
+25.5 +6.8 30 +26  1007.6  0.1  718  263           
12 21.07.14 110 (В) 8-11{12}  20000 м    3/1 600 м верхняя 
[Cu hum|Ci sp]
+26.4 +7.2 30 +26  1007.1  -0.4  718  262           
15 21.07.14 250 (З) 98  4900 м    10/0 верхняя 
[Cu hum|Ci fib]
+22.9 -20.7 4 +23  1008.6  718  268    +29.3       
18 21.07.14 170 (Ю) 20000 м    3/0 средняя 
[Ac trans]
+17.6 +13.6 77 +25  1010.7  1.1  719  269           
21 21.07.14 180 (Ю) 20000 м    1/0 средняя 
[Ac trans]
+14.8 +13.3 91 +22  1010.6  -0.6  719  272           
00 22.07.14 150 (ЮВ) 20000 м    ясно 
+14.8 +13.7 93 +24  1010.2  -0.4  718  271           
03 22.07.14 160 (Ю) 20000 м    ясно 
+17.5 +14.4 82 +27  1010  0.3  719  269  +12.2        сухая 
06 22.07.14 130 (ЮВ) 20000 м    1/0 средняя 
[Ac trans]
+23.4 +14.6 58 +32  1009.4  0.5  719  264           
09 22.07.14 150 (ЮВ) 20000 м    4/3 600 м средняя 
[Cu hum|Ac trans]
+27.3 +9.9 34 +29  1008.7  -0.2  719  262           
12 22.07.14 290 (З) 20000 м    4/4 600 м 
[Cu hum]
+29.2 +10.2 31 +31  1008.2  -0.2  719  260           
15 22.07.14 310 (СЗ) 20000 м    4/3 600 м верхняя 
[Cu hum|Ci fib]
+28.2 +9.2 30 +29  1008.8  -0.2  719  261    +29.5       
18 22.07.14 320 (СЗ) 20000 м    5/0 средняя 
[Ac trans]
+22.7 +9.2 42 +24  1010.9  -0.2  720  266           
21 22.07.14 320 (СЗ) 20000 м    3/0 средняя 
[Ac trans]
+20.1 +10.4 54 +23  1011.2  0.1  720  268           
00 23.07.14 150 (ЮВ) 20000 м    3/0 средняя 
[Ac trans]
+18 +10.3 61 +21  1011.4  -0.2  720  270           
03 23.07.14 120 (ЮВ) 20000 м    ясно 
+19.4 +12.2 63 +26  1011.5  0.3  720  268  +16.6        сухая 
06 23.07.14 120 (ЮВ) 20000 м    ясно 
+25.8 +10.8 39 +29  1011  0.5  720  263           
09 23.07.14 130 (ЮВ) 20000 м    3/3 600 м 
[Cu hum]
+29.3 +11.6 33 +34  1009.7  0.5  720  260           
12 23.07.14 090 (В) 5-10{11}  20000 м    5/5 600 м 
[Cu hum]
+30.5 +10.9 30 +34  1008.7  -0.7  719  259           
15 23.07.14 100 (В) 6{10}  20000 м    ясно 
+29.8 +6.2 23 +30  1008.4  -0.4  719  260    +31.3       
18 23.07.14 100 (В) 20000 м    3/0 верхняя 
[Ci fib]
+22.5 +5.2 32 +23  1010.2  0.5  719  267           
21 23.07.14 120 (ЮВ) 20000 м    ясно 
+21.1 +6.6 39 +21  1010.3  0.1  719  268           
00 24.07.14 100 (В) 20000 м    ясно 
+18.3 +10.7 61 +22  1010.2  -0.5  719  269           
03 24.07.14 110 (В) 20000 м    ясно 
+17.8 +11.3 66 +22  1010.2  0.1  719  270  +15.9        сухая 
06 24.07.14 110 (В) 7-10{10}  20000 м    ясно 
+25.2 +13.5 48 +32  1008.3  -0.5  719  262           
09 24.07.14 120 (ЮВ) 7-11{16}  20000 м    ясно 
+30.1 +10.4 30 +33  1006.7  -0.8  718  259           
12 24.07.14 100 (В) 6{12}  20000 м    ясно 
+31.9 +11 28 +35  1005.5  -0.9  717  257           
15 24.07.14 100 (В) 5{10}  20000 м    ясно 
+31 +9.4 26 +32  1005.1  -0.6  717  258    +32.3       
18 24.07.14 090 (В) 6{10}  20000 м    3/0 средняя 
[Ac trans]
+26.1 +7.8 31 +26  1006.3  0.4  717  262           
21 24.07.14 090 (В) 20000 м    3/0 средняя 
[Ac trans]
+22 +8.1 41 +22  1007.1  717  266           
00 25.07.14 100 (В) 20000 м    3/0 средняя 
[Ac trans]
+18.4 +9.2 55 +20  1007  -0.6  717  269           
03 25.07.14 090 (В) 20000 м    8/0 средняя, верхняя 
[Ac trans|Ci fib]
+19.3 +11.9 62 +25  1007.1  0.2  717  267  +17.4        сухая 
06 25.07.14 090 (В) 20000 м    9/0 средняя 
[Ac As]
+22.4 +12.7 54 +28  1007.3  0.7  717  265           
09 25.07.14 080 (В) 20000 м    9/3 1000 м средняя 
[Sc|Ac As]
+25.4 +13.9 49 +33  1008.5  1.6  719  262           
12 25.07.14 240 (ЮЗ) 20000 м    10/3 1000 м кучево-дожд., средняя 
[Cb calv|Ac und]
+26 +14.5 49 +35  1008.5  0.1  719  261           
15 25.07.14 360 (С) 20000 м  {ливн. осадки}  9/3 1000 м кучево-дожд., средняя 
[Cb calv|Ac As]
+24.9 +14.8 53 +34  1008.2  -0.4  718  262    +27.6       
18 25.07.14 010 (С) 20000 м  {ливн. осадки}  9/0 средняя 
[Ac As]
+23.9 +10.3 42 +26  1009.8  -0.4  719  265           
21 25.07.14 060 (СВ) 20000 м    3/0 средняя 
[Ac trans]
+20.4 +9.8 51 +22  1010.6  0.1  719  268           
00 26.07.14 100 (В) 20000 м    3/0 средняя 
[Ac trans]
+18.6 +11.7 64 +23  1011.2  0.1  720  269           
03 26.07.14 110 (В) 20000 м    3/0 средняя 
[Ac trans]
+19.3 +12.4 64 +25  1011.4  0.3  720  268  +17.3        сухая 
06 26.07.14 100 (В) 7-10{10}  20000 м    ясно 
+25.7 +12.4 44 +31  1011  0.7  720  263           
09 26.07.14 090 (В) 9-13{14}  20000 м    1/1 600 м 
[Cu hum]
+30.2 +8.2 25 +30  1009.8  -0.5  720  260           
12 26.07.14 250 (З) 98-11{13}  4900 м    10/0 
[Cu hum]
+31.4 +8.3 24 +31  1008.5  -1  719  259           
15 26.07.14 100 (В) 6{14}  20000 м    3/3 1000 м 
[Cu hum]
+30.6 +8.4 25 +31  1008.1  -0.6  719  259    +31.9       
18 26.07.14 040 (СВ) 3{11}  20000 м    4/0 средняя 
[Ac trans]
+25.7 +7.9 32 +26  1010.1  1.1  720  264           
21 26.07.14 030 (СВ) 6-11{11}  20000 м    ясно 
+23.9 +6.3 32 +24  1010.5  720  266           
00 27.07.14 040 (СВ) 4{11}  20000 м    ясно 
+21.2 +6.3 38 +21  1011.2  0.3  720  268           
03 27.07.14 050 (СВ) 20000 м    ясно 
+20.9 +7.1 41 +21  1011.8  0.5  720  268  +20        сухая 
06 27.07.14 060 (СВ) 20000 м    8/0 верхняя 
[Ci fib]
+26.2 +8.1 32 +26  1011.7  0.8  721  264           
09 27.07.14 080 (В) 5{11}  20000 м    10/0 средняя, верхняя 
[Ac trans|Ci fib]
+29.6 +7.6 25 +30  1011.8  0.6  721  261           
12 27.07.14 070 (В) 6{11}  20000 м    9/3 600 м средняя 
[Cu hum|Ac trans]
+29.6 +7.3 25 +30  1011.4  -0.4  721  261           
15 27.07.14 050 (СВ) 8-12{12}  20000 м    10/4 1000 м кучево-дожд., средняя 
[Cb calv|Ac trans]
+28.2 +7.2 27 +28  1011.4  -0.2  721  262    +31       
18 27.07.14 050 (СВ) 7-10{13}  20000 м    10/4 1000 м кучево-дожд., средняя 
[Cb calv|Ac und]
+24.2 +5.1 29 +24  1014.3  2.1  723  267           
21 27.07.14 060 (СВ) 6{11}  20000 м    10/4 1000 м кучево-дожд., средняя 
[Cb calv|Ac und]
+21.2 +0.9 26 +21  1015.8  0.8  723  270           
00 28.07.14 060 (СВ) 20000 м    6/0 средняя 
[Ac trans]
+18.5 +1.7 32 +19  1016  -0.3  723  273           
03 28.07.14 080 (В) 20000 м    8/0 средняя 
[Ac trans]
+18.7 +2.4 34 +19  1016.1  -0.3  723  272  +18.1        сухая 
06 28.07.14 080 (В) 8-11{12}  20000 м    8/1 1000 м средняя, верхняя 
[Sc|Ac As|Cc]
+22.4 +3.3 29 +22  1016  0.5  724  269           
09 28.07.14 090 (В) 8-10{13}  20000 м    6/0 средняя, верхняя 
[Ac trans|Cc]
+27.1 +7.7 29 +27  1014.7  -0.4  723  264           
12 28.07.14 080 (В) 5{13}  20000 м    6/3 600 м средняя, верхняя 
[Cu hum|Ac trans|Ci sp]
+28.1 +7.2 27 +28  1013.8  -0.7  723  263           
15 28.07.14 080 (В) 6{12}  20000 м    9/1 1000 м средняя, верхняя 
[Sc diur, vesp|Ac trans|Ci]
+26.1 +6.1 28 +26  1014.3  0.1  723  265    +28.6       
18 28.07.14 070 (В) 20000 м    6/0 средняя, верхняя 
[Ac trans|Ci fib]
+20.5 +6 39 +21  1015.8  0.5  723  270           
21 28.07.14 050 (СВ) 20000 м    3/0 средняя 
[Ac trans]
+19.4 +1.1 29 +20  1015.5  -0.5  723  272           
00 29.07.14 050 (СВ) 20000 м    ясно 
+16.8 +5.4 47 +17  1015.6  -0.4  723  273           
03 29.07.14 070 (В) 20000 м    ясно 
+16.8 +11.2 70 +21  1015.5  0.1  723  272  +14.8        сухая 
06 29.07.14 110 (В) 9-12{12}  20000 м    ясно 
+23.5 +7.8 37 +24  1014.8  0.4  723  267           
09 29.07.14 100 (В) 9-13{16}  20000 м    ясно 
+26.2 +7.2 30 +26  1013.9  -0.4  723  264           
12 29.07.14 100 (В) 10-13{15}  20000 м    3/1 1000 м средняя 
[Cu hum|Ac trans]
+27.5 +6.2 26 +28  1012.8  -0.8  722  263           
15 29.07.14 100 (В) 6{15}  20000 м    3/1 1000 м средняя 
[Cu hum|Ac trans]
+26.3 +5.4 26 +26  1012.6  -0.4  722  264    +27.7       
18 29.07.14 090 (В) 5{11}  20000 м    ясно 
+20.6 +6.2 39 +21  1013.6  722  269           
21 29.07.14 100 (В) 20000 м    ясно 
+18.2 +6.9 48 +18  1014  722  271           
00 30.07.14 080 (В) 20000 м    ясно 
+14 +8.5 69 +14  1014.1  -0.6  721  275           
03 30.07.14 100 (В) 20000 м    ясно 
+15.3 +9.1 66 +16  1014.4  0.5  722  274  +13        сухая 
06 30.07.14 100 (В) 9-12{14}  20000 м    5/5 600 м 
[Sc]
+21.1 +12.9 59 +27  1013.6  0.5  722  267           
09 30.07.14 110 (В) 10-16{16}  20000 м    5/5 600 м 
[Cu hum]
+25.8 +11.7 41 +30  1012.5  -0.3  722  263           
12 30.07.14 100 (В) 10-15{16}  20000 м    3/3 1000 м 
[Cu hum]
+28.1 +8.3 29 +28  1011.5  -0.3  721  262           
15 30.07.14 100 (В) 9-12  20000 м    4/0 верхняя 
[Ci fib]
+27.5 +4.1 22 +28  1011.1  -0.3  721  263    +28.7       
18 30.07.14 080 (В) 8-10{13}  20000 м    ясно 
+23 +4.8 31 +23  1012.6  0.7  721  267           
21 30.07.14 090 (В) 6{11}  20000 м    ясно 
+19.3 +6.4 43 +19  1013.2  721  270           
00 31.07.14 110 (В) 20000 м    3/0 верхняя 
[Ci fib]
+16.1 +7.2 56 +16  1013.4  -0.4  721  273           
03 31.07.14 100 (В) 20000 м    3/0 средняя 
[Ac trans]
+15.9 +9.2 64 +17  1013.8  0.4  721  273  +15.2        сухая 
06 31.07.14 100 (В) 10-14{14}  20000 м    3/0 средняя 
[Ac trans]
+23.1 +7.2 36 +23  1013  0.4  722  267           
09 31.07.14 110 (В) 10-14{17}  20000 м    3/0 средняя 
[Ac trans]
+27.9 +5.7 24 +28  1011.5  0.4  721  263           
12 31.07.14 090 (В) 8-13{15}  20000 м    1/0 средняя 
[Ac trans]
+29.4 +5.9 23 +29  1010.2  -1  720  261           
15 31.07.14 110 (В) 8-11{14}  20000 м    ясно 
+28.6 +6.1 24 +29  1009.5  -0.7  720  261    +29.9       
18 31.07.14 090 (В) 4{11}  20000 м    1/0 средняя 
[Ac trans]
+21.7 +4.7 33 +22  1011.1  0.3  720  268           
21 31.07.14 090 (В) 20000 м    ясно 
+20.1 +6.4 41 +20  1011.4  0.1  720  269           
00 01.08.14 100 (В) 20000 м    ясно 
+17.3 +8.7 57 +18  1011.8  0.1  720  271           
03 01.08.14 110 (В) 20000 м    1/1 600 м 
[Sc]
+16.6 +11.8 73 +22  1012.3  0.3  720  271  +15.8        сухая 
Время (UTC), дата Ветер
(°,м/с) 
Видим.   Явления Облачность Т
(°С)
Тd
(°С)
f(%) Тe
(°С)
Pmin
(гПа)
dP
(гПа)
Po
(мм)
O2
(г/м3)
Тmin Tmax R s Состояние
почвы